Location: Cisewo
(53.3833°N, 14.9000°E)
Time: 13:12:33
(UTC+00:00)

Cosmos 1655 Rocket - Pass Details

Date: 18 April 2021
Orbit: 969 x 1007 km, 82.9° (Epoch: 16 May)

Event Time Altitude Azimuth Distance (km) Brightness Sun altitude
Rises 20:24:07 0° 347° (NNW) 3,718 8.2 -17.5°
Reaches altitude 10° 20:26:41 10° 344° (NNW) 2,759 7.4 -17.7°
Maximum altitude 20:32:52 60° 267° (W) 1,113 4.4 -18.3°
Enters shadow 20:37:47 16° 191° (S) 2,285 5.6 -18.8°
